| time (UTC) | temp C | wind direction | speed KPH | gust KPH | rain 1hr cm | rain 24hr cm | rain mn cm | humidity % | barometer mb |
| 20260906205025 | 23 | 117 | 8.0 | 12.9 | 0.00 | 0.00 | 0.00 | 88 | |
| 20260906204557 | 23 | 120 | 4.8 | 8.0 | 0.00 | 0.00 | 0.00 | 88 | 1013.5 |
| 20260906204518 | 23 | 120 | 4.8 | 8.0 | 0.00 | 0.00 | 0.00 | 88 | |
| 20260906204030 | 23 | 121 | 4.8 | 12.9 | 0.00 | 0.00 | 0.00 | 88 | |
| 20260906203523 | 23 | 121 | 6.4 | 12.9 | 0.00 | 0.00 | 0.00 | 88 | |
| 20260906203117 | 23 | 121 | 6.4 | 12.9 | 0.00 | 0.00 | 0.00 | 88 | 1013.8 |
| 20260906203018 | 23 | 120 | 8.0 | 12.9 | 0.00 | 0.00 | 0.00 | 88 | |
| 20260906202531 | 23 | 120 | 8.0 | 12.9 | 0.00 | 0.00 | 0.00 | 87 | |
| 20260906202026 | 23 | 119 | 8.0 | 11.3 | 0.00 | 0.00 | 0.00 | 87 | |
| 20260906201540 | 23 | 119 | 4.8 | 11.3 | 0.00 | 0.00 | 0.00 | 87 | |
| 20260906201514 | 23 | 119 | 4.8 | 11.3 | 0.00 | 0.00 | 0.00 | 87 | 1014.2 |
| 20260906201026 | 23 | 119 | 6.4 | 12.9 | 0.00 | 0.00 | 0.00 | 87 | |
| 20260906200540 | 23 | 119 | 6.4 | 12.9 | 0.00 | 0.00 | 0.00 | 87 | |
| 20260906200028 | 23 | 119 | 4.8 | 12.9 | 0.00 | 0.00 | 0.00 | 86 | |
| 20260906200012 | 23 | 119 | 6.4 | 12.9 | 0.00 | 0.00 | 0.00 | 86 | 1013.8 |
| 20260906195523 | 23 | 119 | 6.4 | 11.3 | 0.00 | 0.00 | 0.00 | 86 | |
| 20260906195018 | 23 | 119 | 6.4 | 11.3 | 0.00 | 0.00 | 0.00 | 86 | |
| 20260906194600 | 23 | 119 | 3.2 | 14.5 | 0.00 | 0.00 | 0.00 | 86 | 1014.0 |
| 20260906194532 | 23 | 119 | 3.2 | 14.5 | 0.00 | 0.00 | 0.00 | 86 | |
| 20260906194024 | 23 | 119 | 6.4 | 14.5 | 0.00 | 0.00 | 0.00 | 86 | |
| 20260906193518 | 23 | 117 | 6.4 | 14.5 | 0.00 | 0.00 | 0.00 | 86 | |
| 20260906193031 | 23 | 112 | 11.3 | 16.1 | 0.00 | 0.00 | 0.00 | 86 | |
| 20260906193006 | 23 | 110 | 11.3 | 16.1 | 0.00 | 0.00 | 0.00 | 86 | 1013.5 |
| 20260906192525 | 23 | 107 | 9.7 | 14.5 | 0.00 | 0.00 | 0.00 | 87 | |
| 20260906192019 | 23 | 106 | 4.8 | 14.5 | 0.00 | 0.00 | 0.00 | 87 | |
| 20260906191552 | 23 | 105 | 8.0 | 16.1 | 0.00 | 0.00 | 0.00 | 87 | 1013.4 |
| 20260906191534 | 23 | 106 | 9.7 | 16.1 | 0.00 | 0.00 | 0.00 | 87 | |
| 20260906191023 | 23 | 134 | 11.3 | 16.1 | 0.00 | 0.00 | 0.00 | 86 | |
| 20260906190517 | 23 | 155 | 11.3 | 14.5 | 0.00 | 0.00 | 0.00 | 86 | |
| 20260906190110 | 23 | 114 | 6.4 | 17.7 | 0.00 | 0.00 | 0.00 | 87 | 1013.9 |
| 20260906190030 | 23 | 134 | 8.0 | 17.7 | 0.00 | 0.00 | 0.00 | 87 | |
| 20260906185523 | 23 | 144 | 11.3 | 17.7 | 0.00 | 0.00 | 0.00 | 86 | |
| 20260906185038 | 23 | 133 | 9.7 | 16.1 | 0.00 | 0.00 | 0.00 | 86 | |
| 20260906184629 | 23 | 138 | 11.3 | 16.1 | 0.00 | 0.00 | 0.00 | 86 | 1014.0 |
| 20260906184531 | 23 | 118 | 11.3 | 16.1 | 0.00 | 0.00 | 0.00 | 86 | |
| 20260906184025 | 23 | 130 | 11.3 | 17.7 | 0.00 | 0.00 | 0.00 | 86 | |
| 20260906183541 | 23 | 141 | 11.3 | 20.9 | 0.00 | 0.00 | 0.00 | 87 | |
| 20260906183135 | 23 | 117 | 11.3 | 20.9 | 0.00 | 0.00 | 0.00 | 86 | 1013.7 |
| 20260906183055 | 23 | 117 | 14.5 | 20.9 | 0.00 | 0.00 | 0.00 | 86 | |
| 20260906182527 | 23 | 125 | 12.9 | 22.5 | 0.00 | 0.00 | 0.00 | 87 | |
| 20260906182041 | 23 | 104 | 11.3 | 20.9 | 0.00 | 0.00 | 0.00 | 88 | |
| 20260906181641 | 22 | 114 | 12.9 | 20.9 | 0.00 | 0.00 | 0.00 | 88 | 1013.9 |
| 20260906181553 | 23 | 111 | 12.9 | 20.9 | 0.00 | 0.00 | 0.00 | 89 | |
| 20260906181045 | 22 | 105 | 12.9 | 20.9 | 0.00 | 0.00 | 0.00 | 89 | |
| 20260906180537 | 22 | 109 | 16.1 | 25.7 | 0.00 | 0.00 | 0.00 | 89 | |
| 20260906180056 | 22 | 96 | 16.1 | 25.7 | 0.00 | 0.00 | 0.00 | 90 | 1014.1 |
| 20260906180026 | 22 | 112 | 16.1 | 25.7 | 0.00 | 0.00 | 0.00 | 90 | |
| 20260906175519 | 22 | 140 | 14.5 | 22.5 | 0.00 | 0.00 | 0.00 | 90 | |
| 20260906175031 | 22 | 143 | 14.5 | 22.5 | 0.00 | 0.00 | 0.00 | 90 | |
| 20260906174523 | 22 | 148 | 12.9 | 24.1 | 0.00 | 0.00 | 0.00 | 90 | |
| 20260906174506 | 22 | 150 | 12.9 | 24.1 | 0.00 | 0.00 | 0.00 | 90 | 1014.6 |
| 20260906174017 | 22 | 151 | 16.1 | 24.1 | 0.00 | 0.00 | 0.00 | 90 | |
| 20260906173531 | 22 | 144 | 12.9 | 22.5 | 0.00 | 0.00 | 0.00 | 89 | |
| 20260906173059 | 22 | 155 | 11.3 | 24.1 | 0.00 | 0.00 | 0.00 | 89 | 1014.7 |
| 20260906173024 | 22 | 142 | 12.9 | 24.1 | 0.00 | 0.00 | 0.00 | 89 | |
| 20260906172539 | 22 | 144 | 14.5 | 22.5 | 0.00 | 0.00 | 0.00 | 90 | |
| 20260906172032 | 22 | 84 | 12.9 | 24.1 | 0.00 | 0.00 | 0.00 | 90 | |
| 20260906171556 | 22 | 109 | 14.5 | 29.0 | 0.00 | 0.00 | 0.00 | 90 | 1014.4 |
| 20260906171526 | 22 | 112 | 14.5 | 35.4 | 0.00 | 0.00 | 0.00 | 90 | |
| 20260906171019 | 22 | 96 | 19.3 | 35.4 | 0.00 | 0.00 | 0.00 | 90 | |
| 20260906170533 | 22 | 120 | 19.3 | 27.4 | 0.00 | 0.00 | 0.00 | 91 | |
| 20260906170118 | 22 | 82 | 19.3 | 24.1 | 0.00 | 0.00 | 0.00 | 92 | 1014.1 |
| 20260906170026 | 22 | 86 | 19.3 | 24.1 | 0.00 | 0.00 | 0.00 | 92 | |
| 20260906165537 | 22 | 93 | 16.1 | 24.1 | 0.00 | 0.03 | 0.00 | 92 | |
| 20260906165051 | 22 | 107 | 12.9 | 24.1 | 0.00 | 0.03 | 0.00 | 92 | |
| 20260906164618 | 21 | 115 | 12.9 | 25.7 | 0.00 | 0.03 | 0.00 | 92 | 1014.3 |
| 20260906164544 | 22 | 107 | 14.5 | 25.7 | 0.00 | 0.03 | 0.00 | 93 | |
| 20260906164017 | 22 | 105 | 20.9 | 27.4 | 0.00 | 0.03 | 0.00 | 93 | |
| 20260906163531 | 21 | 101 | 19.3 | 27.4 | 0.00 | 0.03 | 0.00 | 93 | |
| 20260906163121 | 21 | 113 | 14.5 | 27.4 | 0.00 | 0.03 | 0.00 | 93 | 1014.0 |
| 20260906163042 | 21 | 101 | 12.9 | 25.7 | 0.00 | 0.03 | 0.00 | 94 | |
| 20260906162535 | 21 | 103 | 16.1 | 25.7 | 0.00 | 0.03 | 0.00 | 94 | |
| 20260906162031 | 21 | 100 | 14.5 | 29.0 | 0.00 | 0.03 | 0.00 | 94 | |
| 20260906161524 | 21 | 92 | 20.9 | 33.8 | 0.00 | 0.03 | 0.00 | 95 | |
| 20260906161504 | 21 | 96 | 20.9 | 33.8 | 0.00 | 0.03 | 0.00 | 95 | 1013.8 |
| 20260906161016 | 21 | 80 | 19.3 | 27.4 | 0.00 | 0.03 | 0.00 | 95 | |
| 20260906160532 | 21 | 109 | 14.5 | 24.1 | 0.00 | 0.03 | 0.00 | 95 | |
| 20260906160052 | 21 | 82 | 12.9 | 24.1 | 0.00 | 0.03 | 0.00 | 95 | 1014.1 |
| 20260906160024 | 21 | 74 | 14.5 | 24.1 | 0.00 | 0.03 | 0.00 | 96 | |
| 20260906155518 | 21 | 82 | 16.1 | 25.7 | 0.00 | 0.03 | 0.00 | 96 | |
| 20260906155027 | 21 | 82 | 16.1 | 25.7 | 0.00 | 0.03 | 0.00 | 96 | |
| 20260906154614 | 21 | 101 | 12.9 | 24.1 | 0.00 | 0.03 | 0.00 | 96 | 1014.3 |
| 20260906154520 | 21 | 91 | 12.9 | 24.1 | 0.00 | 0.03 | 0.00 | 96 | |
| 20260906154035 | 21 | 84 | 14.5 | 25.7 | 0.00 | 0.03 | 0.00 | 96 | |
| 20260906153529 | 21 | 92 | 16.1 | 25.7 | 0.00 | 0.03 | 0.00 | 96 | |
| 20260906153046 | 20 | 74 | 11.3 | 20.9 | 0.00 | 0.03 | 0.00 | 96 | 1014.1 |
| 20260906153022 | 21 | 75 | 12.9 | 20.9 | 0.00 | 0.03 | 0.00 | 96 | |
| 20260906152515 | 21 | 72 | 11.3 | 19.3 | 0.00 | 0.03 | 0.00 | 96 | |
| 20260906152058 | 21 | 78 | 12.9 | 20.9 | 0.00 | 0.03 | 0.00 | 96 | |
| 20260906151552 | 21 | 62 | 9.7 | 20.9 | 0.00 | 0.03 | 0.00 | 96 | |
| 20260906151510 | 20 | 80 | 9.7 | 17.7 | 0.00 | 0.03 | 0.00 | 96 | 1014.1 |
| 20260906151025 | 20 | 82 | 11.3 | 25.7 | 0.00 | 0.03 | 0.00 | 96 | |
| 20260906150538 | 20 | 82 | 14.5 | 25.7 | 0.00 | 0.03 | 0.00 | 96 | |
| 20260906150052 | 20 | 85 | 12.9 | 17.7 | 0.00 | 0.03 | 0.00 | 96 | |
| 20260906150012 | 20 | 85 | 11.3 | 17.7 | 0.00 | 0.03 | 0.00 | 96 | 1014.4 |
| 20260906145525 | 20 | 88 | 6.4 | 14.5 | 0.00 | 0.05 | 0.00 | 96 | |
| 20260906145038 | 20 | 88 | 11.3 | 14.5 | 0.00 | 0.05 | 0.00 | 96 | |
| 20260906144532 | 20 | 90 | 9.7 | 14.5 | 0.00 | 0.05 | 0.00 | 96 | |
| 20260906144519 | 20 | 90 | 8.0 | 14.5 | 0.00 | 0.05 | 0.00 | 96 | 1014.5 |
| 20260906144025 | 20 | 90 | 3.2 | 14.5 | 0.00 | 0.05 | 0.00 | 96 | |
| 20260906143538 | 20 | 90 | 6.4 | 16.1 | 0.00 | 0.05 | 0.00 | 96 | |
| 20260906143106 | 20 | 90 | 11.3 | 17.7 | 0.00 | 0.05 | 0.00 | 96 | 1014.5 |
| 20260906143051 | 20 | 88 | 11.3 | 17.7 | 0.00 | 0.05 | 0.00 | 96 | |
| 20260906142524 | 20 | 90 | 12.9 | 19.3 | 0.00 | 0.05 | 0.00 | 96 | |
| 20260906142018 | 20 | 113 | 12.9 | 19.3 | 0.00 | 0.05 | 0.00 | 96 | |
| 20260906141630 | 20 | 111 | 11.3 | 19.3 | 0.00 | 0.05 | 0.00 | 96 | 1014.6 |
| 20260906141531 | 20 | 103 | 11.3 | 19.3 | 0.00 | 0.05 | 0.00 | 96 | |
| 20260906141043 | 20 | 111 | 12.9 | 19.3 | 0.00 | 0.05 | 0.00 | 96 | |
| 20260906140516 | 20 | 111 | 12.9 | 19.3 | 0.00 | 0.05 | 0.00 | 96 | |
| 20260906140121 | 20 | 107 | 12.9 | 20.9 | 0.00 | 0.05 | 0.00 | 96 | 1014.6 |
| 20260906140026 | 20 | 104 | 12.9 | 20.9 | 0.00 | 0.05 | 0.00 | 96 | |
| 20260906135520 | 20 | 115 | 14.5 | 19.3 | 0.00 | 0.08 | 0.00 | 96 | |
| 20260906135035 | 20 | 117 | 11.3 | 20.9 | 0.00 | 0.08 | 0.00 | 95 | |
| 20260906134636 | 20 | 117 | 11.3 | 20.9 | 0.00 | 0.08 | 0.00 | 95 | 1014.8 |
| 20260906134550 | 20 | 116 | 9.7 | 20.9 | 0.00 | 0.08 | 0.00 | 95 | |
| 20260906134021 | 20 | 118 | 11.3 | 16.1 | 0.00 | 0.08 | 0.00 | 95 | |
| 20260906133534 | 20 | 118 | 9.7 | 16.1 | 0.00 | 0.08 | 0.00 | 95 | |
| 20260906133138 | 20 | 118 | 8.0 | 14.5 | 0.00 | 0.08 | 0.00 | 95 | 1014.8 |
| 20260906133046 | 20 | 118 | 8.0 | 16.1 | 0.00 | 0.08 | 0.00 | 95 | |
| 20260906132520 | 20 | 118 | 8.0 | 16.1 | 0.00 | 0.08 | 0.00 | 95 | |
| 20260906132016 | 20 | 118 | 6.4 | 16.1 | 0.00 | 0.08 | 0.00 | 95 | |
| 20260906131546 | 20 | 118 | 8.0 | 14.5 | 0.00 | 0.08 | 0.00 | 95 | 1015.0 |
| 20260906131530 | 20 | 118 | 9.7 | 14.5 | 0.00 | 0.08 | 0.00 | 95 | |
| 20260906131023 | 20 | 118 | 9.7 | 14.5 | 0.00 | 0.08 | 0.00 | 95 | |
| 20260906130516 | 20 | 121 | 11.3 | 16.1 | 0.00 | 0.08 | 0.00 | 95 | |
| 20260906130148 | 20 | 120 | 9.7 | 17.7 | 0.00 | 0.08 | 0.00 | 95 | 1015.0 |
| 20260906130030 | 20 | 120 | 9.7 | 17.7 | 0.00 | 0.08 | 0.00 | 95 | |
| 20260906125523 | 20 | 119 | 11.3 | 20.9 | 0.00 | 0.08 | 0.00 | 95 | |
| 20260906125016 | 20 | 141 | 14.5 | 20.9 | 0.00 | 0.08 | 0.00 | 95 | |
| 20260906124548 | 20 | 132 | 11.3 | 20.9 | 0.00 | 0.08 | 0.00 | 95 | 1014.5 |
| 20260906124530 | 20 | 131 | 11.3 | 20.9 | 0.00 | 0.08 | 0.00 | 95 | |
| 20260906124023 | 20 | 137 | 12.9 | 22.5 | 0.00 | 0.08 | 0.00 | 95 | |
| 20260906123515 | 20 | 130 | 12.9 | 22.5 | 0.00 | 0.08 | 0.00 | 95 | |
| 20260906123105 | 20 | 121 | 12.9 | 22.5 | 0.00 | 0.08 | 0.00 | 95 | 1014.7 |
| 20260906123029 | 21 | 121 | 12.9 | 22.5 | 0.00 | 0.08 | 0.00 | 95 | |
| 20260906122520 | 20 | 139 | 17.7 | 22.5 | 0.00 | 0.08 | 0.00 | 95 | |
| 20260906122034 | 20 | 138 | 12.9 | 17.7 | 0.00 | 0.08 | 0.00 | 95 | |
| 20260906121631 | 20 | 103 | 8.0 | 14.5 | 0.00 | 0.08 | 0.00 | 95 | 1014.7 |
| 20260906121548 | 20 | 103 | 9.7 | 14.5 | 0.00 | 0.08 | 0.00 | 95 | |
| 20260906121021 | 19 | 103 | 9.7 | 14.5 | 0.00 | 0.08 | 0.00 | 95 | |
| 20260906120535 | 19 | 103 | 8.0 | 14.5 | 0.00 | 0.08 | 0.00 | 94 | |
| 20260906120028 | 19 | 103 | 9.7 | 14.5 | 0.00 | 0.08 | 0.00 | 94 | |
| 20260906120013 | 19 | 103 | 8.0 | 12.9 | 0.00 | 0.08 | 0.00 | 94 | 1014.7 |
| 20260906115520 | 19 | 103 | 8.0 | 12.9 | 0.00 | 0.08 | 0.00 | 94 | |
| 20260906115034 | 19 | 103 | 6.4 | 14.5 | 0.00 | 0.08 | 0.00 | 94 | |
| 20260906114559 | 19 | 103 | 6.4 | 14.5 | 0.00 | 0.08 | 0.00 | 94 | 1014.6 |
| 20260906114528 | 19 | 103 | 8.0 | 14.5 | 0.00 | 0.08 | 0.00 | 94 | |
| 20260906114022 | 19 | 103 | 9.7 | 16.1 | 0.00 | 0.08 | 0.00 | 94 | |
| 20260906113515 | 20 | 103 | 8.0 | 16.1 | 0.00 | 0.08 | 0.00 | 94 | |
| 20260906113122 | 19 | 103 | 9.7 | 16.1 | 0.00 | 0.08 | 0.00 | 94 | 1014.4 |
| 20260906113027 | 20 | 102 | 11.3 | 16.1 | 0.00 | 0.08 | 0.00 | 94 | |
| 20260906112541 | 19 | 98 | 11.3 | 16.1 | 0.00 | 0.08 | 0.00 | 94 | |
| 20260906112034 | 19 | 98 | 8.0 | 11.3 | 0.00 | 0.08 | 0.00 | 94 | |
| 20260906111528 | 19 | 98 | 6.4 | 11.3 | 0.00 | 0.08 | 0.00 | 94 | |
| 20260906111512 | 19 | 98 | 6.4 | 11.3 | 0.00 | 0.08 | 0.00 | 94 | 1014.4 |
| 20260906111041 | 19 | 98 | 8.0 | 11.3 | 0.00 | 0.08 | 0.00 | 94 | |
| 20260906110600 | 19 | 98 | 6.4 | 11.3 | 0.00 | 0.08 | 0.00 | 94 | |
| 20260906110138 | 19 | 98 | 8.0 | 11.3 | 0.00 | 0.08 | 0.00 | 94 | 1014.4 |
| 20260906110051 | 19 | 98 | 9.7 | 11.3 | 0.00 | 0.08 | 0.00 | 94 | |
| 20260906105525 | 19 | 98 | 4.8 | 11.3 | 0.00 | 0.08 | 0.00 | 93 | |
| 20260906105040 | 19 | 98 | 8.0 | 12.9 | 0.00 | 0.08 | 0.00 | 93 | |
| 20260906104620 | 19 | 98 | 6.4 | 12.9 | 0.00 | 0.08 | 0.00 | 93 | 1014.4 |
| 20260906104531 | 19 | 98 | 6.4 | 12.9 | 0.00 | 0.08 | 0.00 | 93 | |
| 20260906104024 | 19 | 98 | 6.4 | 11.3 | 0.00 | 0.08 | 0.00 | 93 | |
| 20260906103517 | 19 | 98 | 6.4 | 12.9 | 0.00 | 0.08 | 0.00 | 93 | |
| 20260906103055 | 19 | 98 | 6.4 | 12.9 | 0.00 | 0.08 | 0.00 | 93 | 1014.7 |
| 20260906103030 | 19 | 98 | 8.0 | 12.9 | 0.00 | 0.08 | 0.00 | 93 | |
| 20260906102524 | 20 | 98 | 8.0 | 12.9 | 0.00 | 0.08 | 0.00 | 93 | |
| 20260906102020 | 20 | 98 | 6.4 | 11.3 | 0.00 | 0.08 | 0.00 | 93 | |
| 20260906101616 | 19 | 98 | 4.8 | 11.3 | 0.00 | 0.08 | 0.00 | 93 | 1014.8 |
| 20260906101534 | 20 | 98 | 6.4 | 11.3 | 0.00 | 0.08 | 0.00 | 92 | |
| 20260906101029 | 20 | 98 | 6.4 | 11.3 | 0.00 | 0.08 | 0.00 | 92 | |
| 20260906100543 | 20 | 98 | 6.4 | 16.1 | 0.00 | 0.08 | 0.00 | 92 | |
| 20260906100121 | 19 | 98 | 9.7 | 16.1 | 0.00 | 0.08 | 0.00 | 92 | 1014.9 |
| 20260906100016 | 20 | 98 | 11.3 | 16.1 | 0.00 | 0.08 | 0.00 | 92 | |
| 20260906095530 | 20 | 90 | 9.7 | 16.1 | 0.00 | 0.08 | 0.00 | 92 | |
| 20260906095044 | 20 | 90 | 11.3 | 16.1 | 0.00 | 0.08 | 0.00 | 92 | |
| 20260906094532 | 19 | 90 | 11.3 | 17.7 | 0.00 | 0.08 | 0.00 | 92 | 1014.7 |
| 20260906094517 | 20 | 90 | 11.3 | 17.7 | 0.00 | 0.08 | 0.00 | 92 | |
| 20260906094028 | 20 | 92 | 12.9 | 17.7 | 0.00 | 0.08 | 0.00 | 92 | |
| 20260906093522 | 20 | 91 | 11.3 | 17.7 | 0.00 | 0.08 | 0.00 | 92 | |
| 20260906093059 | 20 | 92 | 12.9 | 17.7 | 0.00 | 0.08 | 0.00 | 92 | 1014.7 |
| 20260906093036 | 20 | 93 | 12.9 | 17.7 | 0.00 | 0.08 | 0.00 | 92 | |
| 20260906092551 | 20 | 96 | 11.3 | 20.9 | 0.00 | 0.08 | 0.00 | 92 | |
| 20260906092043 | 20 | 94 | 11.3 | 17.7 | 0.00 | 0.08 | 0.00 | 92 | |
| 20260906091541 | 20 | 92 | 11.3 | 19.3 | 0.00 | 0.08 | 0.00 | 92 | 1014.7 |
| 20260906091516 | 20 | 90 | 11.3 | 19.3 | 0.00 | 0.08 | 0.00 | 92 | |
| 20260906091031 | 20 | 87 | 12.9 | 19.3 | 0.00 | 0.08 | 0.00 | 92 | |
| 20260906090525 | 20 | 83 | 12.9 | 20.9 | 0.00 | 0.08 | 0.00 | 92 | |
| 20260906090020 | 20 | 84 | 12.9 | 19.3 | 0.00 | 0.08 | 0.00 | 91 | |
| 20260906085532 | 20 | 80 | 9.7 | 19.3 | 0.00 | 0.08 | 0.00 | 91 | |
| 20260906085026 | 20 | 80 | 12.9 | 20.9 | 0.00 | 0.08 | 0.00 | 91 | |
| 20260906084539 | 20 | 85 | 12.9 | 20.9 | 0.00 | 0.08 | 0.00 | 91 | |
| 20260906084504 | 19 | 86 | 12.9 | 20.9 | 0.00 | 0.08 | 0.00 | 91 | 1014.7 |
| 20260906084054 | 20 | 86 | 11.3 | 17.7 | 0.00 | 0.08 | 0.00 | 91 | |
| 20260906083527 | 20 | 84 | 12.9 | 17.7 | 0.00 | 0.08 | 0.00 | 91 | |
| 20260906083035 | 19 | 85 | 11.3 | 17.7 | 0.00 | 0.08 | 0.00 | 91 | 1014.8 |
| 20260906083019 | 20 | 85 | 12.9 | 17.7 | 0.00 | 0.08 | 0.00 | 91 | |
| 20260906082534 | 20 | 85 | 12.9 | 17.7 | 0.00 | 0.08 | 0.00 | 91 | |
| 20260906082028 | 20 | 84 | 11.3 | 16.1 | 0.00 | 0.08 | 0.00 | 91 | |
| 20260906081557 | 20 | 86 | 9.7 | 20.9 | 0.00 | 0.08 | 0.00 | 91 | 1014.8 |
| 20260906081542 | 20 | 86 | 9.7 | 20.9 | 0.00 | 0.08 | 0.00 | 91 | |
| 20260906081032 | 20 | 85 | 11.3 | 20.9 | 0.00 | 0.08 | 0.00 | 91 | |
| 20260906080526 | 20 | 84 | 9.7 | 14.5 | 0.00 | 0.08 | 0.00 | 91 | |
| 20260906080057 | 20 | 84 | 8.0 | 14.5 | 0.00 | 0.08 | 0.00 | 92 | 1014.8 |
| 20260906080022 | 20 | 84 | 9.7 | 14.5 | 0.00 | 0.08 | 0.00 | 92 | |
| 20260906075515 | 20 | 84 | 9.7 | 16.1 | 0.00 | 0.08 | 0.00 | 92 | |
| 20260906075030 | 20 | 84 | 11.3 | 16.1 | 0.00 | 0.08 | 0.00 | 92 | |
| 20260906074523 | 20 | 85 | 9.7 | 14.5 | 0.00 | 0.08 | 0.00 | 91 | |
| 20260906074502 | 19 | 85 | 9.7 | 14.5 | 0.00 | 0.08 | 0.00 | 91 | 1014.6 |
| 20260906074016 | 20 | 85 | 9.7 | 14.5 | 0.00 | 0.08 | 0.00 | 91 | |
| 20260906073551 | 20 | 86 | 9.7 | 14.5 | 0.00 | 0.08 | 0.00 | 91 | |
| 20260906073038 | 19 | 86 | 8.0 | 17.7 | 0.00 | 0.08 | 0.00 | 91 | 1014.5 |
| 20260906073024 | 20 | 86 | 9.7 | 17.7 | 0.00 | 0.08 | 0.00 | 91 | |
| 20260906072515 | 20 | 87 | 11.3 | 19.3 | 0.00 | 0.08 | 0.00 | 92 | |
| 20260906072055 | 20 | 82 | 14.5 | 20.9 | 0.00 | 0.08 | 0.00 | 92 | |
| 20260906071541 | 19 | 85 | 11.3 | 20.9 | 0.00 | 0.08 | 0.00 | 92 | 1014.6 |
| 20260906071527 | 20 | 86 | 11.3 | 20.9 | 0.00 | 0.08 | 0.00 | 92 | |
| 20260906071040 | 20 | 84 | 12.9 | 22.5 | 0.00 | 0.08 | 0.00 | 92 | |
| 20260906070554 | 20 | 84 | 12.9 | 17.7 | 0.00 | 0.08 | 0.00 | 91 | |
| 20260906070046 | 19 | 80 | 8.0 | 16.1 | 0.00 | 0.08 | 0.00 | 91 | 1014.8 |
| 20260906070024 | 20 | 80 | 9.7 | 16.1 | 0.00 | 0.08 | 0.00 | 91 | |
| 20260906065519 | 20 | 79 | 11.3 | 16.1 | 0.00 | 0.08 | 0.00 | 91 | |
| 20260906065033 | 20 | 79 | 11.3 | 16.1 | 0.00 | 0.08 | 0.00 | 91 | |
| 20260906064611 | 19 | 82 | 11.3 | 16.1 | 0.00 | 0.08 | 0.00 | 91 | 1014.8 |
| 20260906064528 | 20 | 82 | 12.9 | 16.1 | 0.00 | 0.08 | 0.00 | 91 | |
| 20260906064024 | 20 | 74 | 9.7 | 16.1 | 0.00 | 0.08 | 0.00 | 91 | |
| 20260906063517 | 20 | 72 | 9.7 | 17.7 | 0.00 | 0.08 | 0.00 | 91 | |
| 20260906063046 | 20 | 84 | 8.0 | 17.7 | 0.00 | 0.08 | 0.00 | 90 | 1014.8 |
| 20260906063031 | 20 | 84 | 8.0 | 17.7 | 0.00 | 0.08 | 0.00 | 90 | |
| 20260906062524 | 20 | 85 | 12.9 | 17.7 | 0.00 | 0.08 | 0.00 | 90 | |
| 20260906062018 | 20 | 86 | 11.3 | 16.1 | 0.00 | 0.08 | 0.00 | 90 | |
| 20260906061626 | 20 | 90 | 6.4 | 16.1 | 0.00 | 0.08 | 0.00 | 90 | 1015.0 |
| 20260906061533 | 20 | 91 | 8.0 | 16.1 | 0.00 | 0.08 | 0.00 | 90 | |
| 20260906061027 | 20 | 92 | 11.3 | 17.7 | 0.00 | 0.08 | 0.00 | 90 | |
| 20260906060542 | 20 | 105 | 12.9 | 17.7 | 0.00 | 0.08 | 0.00 | 90 | |
| 20260906060133 | 20 | 99 | 9.7 | 17.7 | 0.00 | 0.08 | 0.00 | 90 | 1015.0 |
| 20260906060054 | 20 | 98 | 11.3 | 17.7 | 0.00 | 0.08 | 0.00 | 90 | |
| 20260906055526 | 20 | 99 | 6.4 | 11.3 | 0.00 | 0.08 | 0.00 | 90 | |
| 20260906055019 | 20 | 99 | 8.0 | 16.1 | 0.00 | 0.08 | 0.00 | 90 | |
| 20260906054533 | 20 | 100 | 11.3 | 16.1 | 0.00 | 0.08 | 0.00 | 90 | |
| 20260906054526 | 20 | 100 | 9.7 | 16.1 | 0.00 | 0.08 | 0.00 | 90 | 1015.1 |
| 20260906054026 | 20 | 87 | 8.0 | 12.9 | 0.00 | 0.08 | 0.00 | 90 | |
| 20260906053540 | 20 | 87 | 8.0 | 16.1 | 0.00 | 0.08 | 0.00 | 90 | |
| 20260906053032 | 20 | 87 | 11.3 | 16.1 | 0.00 | 0.08 | 0.00 | 90 | |
| 20260906053014 | 20 | 87 | 9.7 | 16.1 | 0.00 | 0.08 | 0.00 | 90 | 1015.0 |
| 20260906052524 | 20 | 84 | 9.7 | 16.1 | 0.00 | 0.08 | 0.00 | 89 | |
| 20260906052018 | 20 | 83 | 11.3 | 16.1 | 0.00 | 0.08 | 0.00 | 89 | |
| 20260906051609 | 20 | 82 | 4.8 | 14.5 | 0.00 | 0.08 | 0.00 | 89 | 1014.9 |
| 20260906051527 | 20 | 82 | 6.4 | 14.5 | 0.00 | 0.08 | 0.00 | 89 | |
| 20260906051020 | 20 | 82 | 9.7 | 14.5 | 0.00 | 0.08 | 0.00 | 89 | |
| 20260906050603 | 20 | 82 | 8.0 | 16.1 | 0.00 | 0.08 | 0.00 | 88 | |
| 20260906050111 | 20 | 82 | 9.7 | 16.1 | 0.00 | 0.08 | 0.00 | 88 | 1014.7 |
| 20260906050059 | 20 | 82 | 9.7 | 16.1 | 0.00 | 0.08 | 0.00 | 88 | |
| 20260906045525 | 20 | 95 | 8.0 | 12.9 | 0.00 | 0.08 | 0.08 | 88 | |
| 20260906045019 | 21 | 101 | 6.4 | 14.5 | 0.00 | 0.08 | 0.08 | 88 | |
| 20260906044610 | 20 | 101 | 9.7 | 16.1 | 0.00 | 0.08 | 0.08 | 88 | 1014.6 |
| 20260906044533 | 21 | 101 | 11.3 | 16.1 | 0.00 | 0.08 | 0.08 | 88 | |
| 20260906044027 | 21 | 96 | 11.3 | 16.1 | 0.00 | 0.08 | 0.08 | 87 | |
| 20260906043519 | 21 | 97 | 4.8 | 14.5 | 0.00 | 0.08 | 0.08 | 87 | |
| 20260906043032 | 21 | 98 | 8.0 | 17.7 | 0.00 | 0.08 | 0.08 | 87 | |
| 20260906043023 | 21 | 98 | 6.4 | 17.7 | 0.00 | 0.08 | 0.08 | 87 | 1014.5 |
| 20260906042525 | 21 | 107 | 9.7 | 20.9 | 0.00 | 0.08 | 0.08 | 87 | |
| 20260906042038 | 21 | 112 | 14.5 | 22.5 | 0.00 | 0.08 | 0.08 | 87 | |
| 20260906041608 | 21 | 103 | 12.9 | 22.5 | 0.00 | 0.08 | 0.08 | 87 | 1014.4 |
| 20260906041552 | 21 | 108 | 12.9 | 22.5 | 0.00 | 0.08 | 0.08 | 87 | |
| 20260906041044 | 21 | 88 | 9.7 | 24.1 | 0.00 | 0.08 | 0.08 | 87 | |
| 20260906040538 | 21 | 94 | 16.1 | 24.1 | 0.00 | 0.08 | 0.08 | 87 | |
| 20260906040052 | 21 | 90 | 12.9 | 27.4 | 0.00 | 0.08 | 0.08 | 87 | |
| 20260906040005 | 21 | 91 | 12.9 | 27.4 | 0.00 | 0.08 | 0.08 | 87 | 1014.4 |
| 20260906035524 | 21 | 112 | 19.3 | 27.4 | 0.00 | 0.08 | 0.08 | 88 | |
| 20260906035018 | 21 | 107 | 17.7 | 25.7 | 0.00 | 0.08 | 0.08 | 88 | |
| 20260906034601 | 21 | 91 | 16.1 | 27.4 | 0.00 | 0.08 | 0.08 | 88 | 1014.4 |
| 20260906034531 | 21 | 88 | 17.7 | 27.4 | 0.00 | 0.08 | 0.08 | 88 | |
| 20260906034026 | 21 | 86 | 20.9 | 29.0 | 0.00 | 0.08 | 0.08 | 88 | |
| 20260906033519 | 21 | 78 | 14.5 | 24.1 | 0.00 | 0.08 | 0.08 | 88 | |
| 20260906033119 | 21 | 79 | 16.1 | 24.1 | 0.00 | 0.08 | 0.08 | 88 | 1014.8 |
| 20260906033033 | 21 | 62 | 16.1 | 24.1 | 0.00 | 0.08 | 0.08 | 88 | |
| 20260906032525 | 21 | 73 | 14.5 | 24.1 | 0.00 | 0.08 | 0.08 | 87 | |
| 20260906032037 | 21 | 77 | 11.3 | 22.5 | 0.00 | 0.08 | 0.08 | 87 | |
| 20260906031616 | 21 | 69 | 12.9 | 22.5 | 0.00 | 0.08 | 0.08 | 87 | 1014.9 |
| 20260906031531 | 21 | 63 | 14.5 | 22.5 | 0.00 | 0.08 | 0.08 | 87 | |
| 20260906031024 | 21 | 67 | 12.9 | 24.1 | 0.00 | 0.08 | 0.08 | 86 | |
| 20260906030519 | 22 | 68 | 14.5 | 27.4 | 0.00 | 0.08 | 0.08 | 85 | |
| 20260906030048 | 22 | 71 | 16.1 | 27.4 | 0.00 | 0.08 | 0.08 | 84 | 1014.9 |
| 20260906030031 | 22 | 74 | 16.1 | 27.4 | 0.00 | 0.08 | 0.08 | 84 | |
| 20260906025523 | 23 | 69 | 17.7 | 29.0 | 0.00 | 0.08 | 0.08 | 82 | |
| 20260906025037 | 23 | 56 | 19.3 | 29.0 | 0.00 | 0.08 | 0.08 | 80 | |
| 20260906024606 | 23 | 38 | 4.8 | 9.7 | 0.00 | 0.08 | 0.08 | 79 | 1014.8 |
| 20260906024551 | 23 | 38 | 4.8 | 9.7 | 0.00 | 0.08 | 0.08 | 79 | |
| 20260906024022 | 23 | 38 | 4.8 | 8.0 | 0.00 | 0.08 | 0.08 | 79 | |
| 20260906023516 | 23 | 38 | 4.8 | 8.0 | 0.00 | 0.08 | 0.08 | 79 | |
| 20260906023110 | 23 | 38 | 4.8 | 8.0 | 0.00 | 0.08 | 0.08 | 80 | 1014.7 |
| 20260906023030 | 23 | 38 | 4.8 | 8.0 | 0.00 | 0.08 | 0.08 | 80 | |
| 20260906022543 | 23 | 38 | 4.8 | 8.0 | 0.00 | 0.08 | 0.08 | 80 | |
| 20260906022015 | 23 | 38 | 4.8 | 8.0 | 0.00 | 0.08 | 0.08 | 79 | |
| 20260906021615 | 23 | 38 | 1.6 | 6.4 | 0.00 | 0.08 | 0.08 | 79 | 1014.6 |
| 20260906021531 | 23 | 38 | 3.2 | 6.4 | 0.00 | 0.08 | 0.08 | 79 | |
| 20260906021022 | 24 | 38 | 3.2 | 4.8 | 0.00 | 0.08 | 0.08 | 79 | |
| 20260906020537 | 24 | 38 | 1.6 | 6.4 | 0.00 | 0.08 | 0.08 | 78 | |
| 20260906020138 | 24 | 38 | 3.2 | 6.4 | 0.00 | 0.08 | 0.08 | 77 | 1014.5 |
| 20260906020050 | 24 | 38 | 4.8 | 6.4 | 0.00 | 0.08 | 0.08 | 77 | |
| 20260906015522 | 25 | 38 | 3.2 | 6.4 | 0.00 | 0.08 | 0.08 | 77 | |
| 20260906015017 | 25 | 38 | 4.8 | 6.4 | 0.00 | 0.08 | 0.08 | 77 | |
| 20260906014551 | 24 | 38 | 0.0 | 4.8 | 0.00 | 0.08 | 0.08 | 77 | 1014.5 |
| 20260906014530 | 25 | 38 | 0.0 | 4.8 | 0.00 | 0.08 | 0.08 | 76 | |
| 20260906014023 | 25 | 38 | 0.0 | 3.2 | 0.00 | 0.08 | 0.08 | 76 | |
| 20260906013517 | 25 | 38 | 0.0 | 4.8 | 0.00 | 0.08 | 0.08 | 76 | |
| 20260906013107 | 25 | 38 | 0.0 | 4.8 | 0.00 | 0.08 | 0.08 | 75 | 1014.3 |
| 20260906013030 | 25 | 38 | 0.0 | 4.8 | 0.00 | 0.08 | 0.08 | 75 | |
| 20260906012543 | 25 | 38 | 1.6 | 6.4 | 0.00 | 0.08 | 0.08 | 75 | |
| 20260906012015 | 25 | 38 | 3.2 | 14.5 | 0.00 | 0.08 | 0.08 | 75 | |
| 20260906011610 | 25 | 38 | 3.2 | 14.5 | 0.00 | 0.08 | 0.08 | 75 | 1014.1 |
| 20260906011526 | 25 | 38 | 4.8 | 14.5 | 0.00 | 0.08 | 0.08 | 75 | |
| 20260906011021 | 25 | 63 | 8.0 | 14.5 | 0.00 | 0.08 | 0.08 | 75 | |
| 20260906010534 | 25 | 72 | 4.8 | 8.0 | 0.00 | 0.08 | 0.08 | 75 | |
| 20260906010029 | 25 | 72 | 4.8 | 12.9 | 0.00 | 0.08 | 0.08 | 75 | |
| 20260906010017 | 25 | 72 | 3.2 | 12.9 | 0.00 | 0.08 | 0.08 | 75 | 1014.2 |
| 20260906005544 | 25 | 72 | 6.4 | 12.9 | 0.00 | 0.08 | 0.08 | 75 | |
| 20260906005016 | 25 | 84 | 6.4 | 11.3 | 0.00 | 0.08 | 0.08 | 75 | |
| 20260906004530 | 25 | 101 | 4.8 | 11.3 | 0.00 | 0.08 | 0.08 | 74 | |
| 20260906004514 | 25 | 101 | 4.8 | 9.7 | 0.00 | 0.08 | 0.08 | 74 | 1014.1 |
| 20260906004024 | 25 | 154 | 1.6 | 12.9 | 0.00 | 0.08 | 0.08 | 74 | |
| 20260906003538 | 25 | 157 | 8.0 | 17.7 | 0.00 | 0.08 | 0.08 | 74 | |
| 20260906003032 | 25 | 163 | 8.0 | 17.7 | 0.00 | 0.08 | 0.08 | 75 | |
| 20260906003020 | 25 | 163 | 9.7 | 17.7 | 0.00 | 0.08 | 0.08 | 74 | 1013.5 |
| 20260906002527 | 25 | 167 | 11.3 | 19.3 | 0.00 | 0.08 | 0.08 | 75 | |
| 20260906002020 | 26 | 180 | 12.9 | 19.3 | 0.00 | 0.08 | 0.08 | 74 | |
| 20260906001600 | 26 | 175 | 11.3 | 19.3 | 0.00 | 0.08 | 0.08 | 73 | 1013.5 |
| 20260906001533 | 26 | 171 | 11.3 | 19.3 | 0.00 | 0.08 | 0.08 | 73 | |
| 20260906001026 | 26 | 180 | 14.5 | 19.3 | 0.00 | 0.08 | 0.08 | 72 | |
| 20260906000521 | 26 | 153 | 14.5 | 19.3 | 0.00 | 0.08 | 0.08 | 72 | |
| 20260906000029 | 26 | 167 | 9.7 | 19.3 | 0.00 | 0.08 | 0.08 | 72 | 1013.2 |
| 20260906000015 | 26 | 164 | 11.3 | 19.3 | 0.00 | 0.08 | 0.08 | 72 | |
| 20260905235530 | 26 | 171 | 9.7 | 19.3 | 0.00 | 0.08 | 0.08 | 71 | |
| 20260905235024 | 27 | 175 | 12.9 | 19.3 | 0.00 | 0.08 | 0.08 | 70 | |
| 20260905234553 | 26 | 165 | 11.3 | 19.3 | 0.00 | 0.08 | 0.08 | 70 | 1012.9 |
| 20260905234518 | 27 | 168 | 11.3 | 19.3 | 0.00 | 0.08 | 0.08 | 70 | |
| 20260905234031 | 27 | 157 | 11.3 | 22.5 | 0.00 | 0.08 | 0.08 | 70 | |
| 20260905233525 | 27 | 155 | 11.3 | 22.5 | 0.00 | 0.08 | 0.08 | 70 | |
| 20260905233123 | 26 | 152 | 9.7 | 17.7 | 0.00 | 0.08 | 0.08 | 70 | 1012.4 |
| 20260905233019 | 27 | 151 | 11.3 | 17.7 | 0.00 | 0.08 | 0.08 | 70 | |
| 20260905232532 | 27 | 161 | 11.3 | 19.3 | 0.00 | 0.08 | 0.08 | 70 | |
| 20260905232025 | 27 | 165 | 9.7 | 19.3 | 0.00 | 0.08 | 0.08 | 69 | |
| 20260905231546 | 26 | 155 | 8.0 | 20.9 | 0.00 | 0.08 | 0.08 | 70 | 1012.0 |
| 20260905231517 | 27 | 165 | 9.7 | 20.9 | 0.00 | 0.08 | 0.08 | 70 | |
| 20260905231033 | 27 | 161 | 12.9 | 20.9 | 0.00 | 0.08 | 0.08 | 69 | |
| 20260905230526 | 27 | 161 | 12.9 | 20.9 | 0.00 | 0.08 | 0.08 | 69 | |
| 20260905230113 | 27 | 148 | 11.3 | 22.5 | 0.00 | 0.08 | 0.08 | 69 | 1012.0 |
| 20260905230019 | 27 | 161 | 12.9 | 22.5 | 0.00 | 0.08 | 0.08 | 68 | |
| 20260905225531 | 27 | 138 | 12.9 | 22.5 | 0.00 | 0.08 | 0.08 | 68 | |
| 20260905225024 | 27 | 163 | 12.9 | 22.5 | 0.00 | 0.08 | 0.08 | 68 | |
| 20260905224541 | 27 | 159 | 12.9 | 20.9 | 0.00 | 0.08 | 0.08 | 68 | 1012.2 |
| 20260905224520 | 27 | 145 | 12.9 | 20.9 | 0.00 | 0.08 | 0.08 | 68 | |
| 20260905224033 | 27 | 154 | 14.5 | 22.5 | 0.00 | 0.08 | 0.08 | 68 | |
| 20260905223525 | 27 | 150 | 14.5 | 22.5 | 0.00 | 0.08 | 0.08 | 67 | |
| 20260905223104 | 27 | 134 | 11.3 | 19.3 | 0.00 | 0.08 | 0.08 | 67 | 1012.3 |
| 20260905223019 | 27 | 161 | 11.3 | 19.3 | 0.00 | 0.08 | 0.08 | 67 | |
| 20260905222528 | 27 | 149 | 9.7 | 22.5 | 0.00 | 0.08 | 0.08 | 66 | |
| 20260905222042 | 27 | 154 | 12.9 | 24.1 | 0.00 | 0.08 | 0.08 | 66 | |
| 20260905221632 | 27 | 163 | 14.5 | 24.1 | 0.00 | 0.08 | 0.08 | 66 | 1012.3 |
| 20260905221555 | 27 | 152 | 14.5 | 24.1 | 0.00 | 0.08 | 0.08 | 66 | |
| 20260905221030 | 27 | 134 | 16.1 | 25.7 | 0.00 | 0.08 | 0.08 | 66 | |
| 20260905220523 | 27 | 159 | 12.9 | 27.4 | 0.00 | 0.08 | 0.08 | 67 | |
| 20260905220038 | 27 | 168 | 16.1 | 27.4 | 0.00 | 0.08 | 0.08 | 67 | 1012.2 |
| 20260905220016 | 27 | 141 | 16.1 | 27.4 | 0.00 | 0.08 | 0.08 | 67 | |
| 20260905215528 | 27 | 152 | 17.7 | 22.5 | 0.00 | 0.08 | 0.08 | 69 | |
| 20260905215022 | 26 | 141 | 16.1 | 22.5 | 0.00 | 0.08 | 0.08 | 70 | |
| 20260905214601 | 26 | 156 | 11.3 | 19.3 | 0.00 | 0.08 | 0.08 | 71 | 1012.5 |
| 20260905214517 | 26 | 157 | 11.3 | 19.3 | 0.00 | 0.08 | 0.08 | 71 | |
| 20260905214031 | 26 | 169 | 9.7 | 17.7 | 0.00 | 0.08 | 0.08 | 72 | |
| 20260905213524 | 26 | 144 | 14.5 | 19.3 | 0.00 | 0.08 | 0.08 | 72 | |
| 20260905213031 | 26 | 145 | 11.3 | 24.1 | 0.00 | 0.08 | 0.08 | 72 | 1012.7 |
| 20260905213017 | 26 | 164 | 11.3 | 24.1 | 0.00 | 0.08 | 0.08 | 72 | |
| 20260905212530 | 26 | 163 | 14.5 | 24.1 | 0.00 | 0.08 | 0.08 | 71 | |
| 20260905212021 | 26 | 131 | 16.1 | 22.5 | 0.00 | 0.08 | 0.08 | 70 | |
| 20260905211602 | 26 | 157 | 14.5 | 24.1 | 0.00 | 0.08 | 0.08 | 70 | 1012.8 |
| 20260905211534 | 26 | 139 | 12.9 | 24.1 | 0.00 | 0.08 | 0.08 | 71 | |
| 20260905211027 | 26 | 147 | 17.7 | 27.4 | 0.00 | 0.08 | 0.08 | 71 | |
| 20260905210540 | 26 | 165 | 17.7 | 27.4 | 0.00 | 0.08 | 0.08 | 72 | |
| 20260905210108 | 26 | 147 | 16.1 | 24.1 | 0.00 | 0.08 | 0.08 | 72 | 1012.9 |
| 20260905210033 | 26 | 172 | 16.1 | 24.1 | 0.00 | 0.08 | 0.08 | 72 | |
| 20260905205525 | 26 | 154 | 16.1 | 24.1 | 0.00 | 0.08 | 0.08 | 74 |